Location: U-46 Planetarium
(42.0300°N, 88.2740°W)
Time: 18:07:20
(UTC-05:00)

Cosmos 2297 Rocket - Pass Details

Date: 16 December 2017
Orbit: 838 x 844 km, 71.0° (Epoch: 23 April)

Event Time Altitude Azimuth Distance (km) Brightness Sun altitude
Rises 18:13:31 0° 329° (NNW) 3,400 5.6 -19.8°
Reaches altitude 10° 18:16:04 10° 323° (NW) 2,462 4.9 -20.2°
Maximum altitude 18:21:21 43° 254° (WSW) 1,174 3.4 -21.2°
Drops below altitude 10° 18:26:37 10° 184° (S) 2,451 4.8 -22.1°
Sets 18:29:09 0° 178° (S) 3,382 5.5 -22.6°
